Location: Haulchin
(50.3172°N, 3.4360°E)
Time: 11:30:54
(UTC+00:00)

Cosmos 1190 Rocket - Pass Details

Date: 23 May 2024
Orbit: 754 x 778 km, 74.1° (Epoch: 14 June)

Event Time Altitude Azimuth Distance (km) Brightness Sun altitude
Exits shadow 00:51:12 30° 209° (SSW) 1,354 4.7 -17.5°
Maximum altitude 00:53:52 82° 294° (WNW) 788 4.0 -17.3°
Drops below altitude 10° 00:59:12 10° 23° (NNE) 2,339 7.8 -17.1°
Sets 01:01:36 0° 24° (NNE) 3,272 9.0 -16.9°
